User: anonymous   Login
Location: Oshawa
(43.9000°N, 78.8670°W)
Time: 21:27:21
(UTC-05:00)
Language:

Cosmos 1408 Rocket - Orbit

View from above orbital plane
View from above orbital plane
View from above satellite
View from above satellite

Ground track
Ground track

The orbit data is extracted from the following two-line orbital elements,

1 13553U 82092B   16337.20930946  .00000106  00000-0  97369-5 0  9997
2 13553  82.5705  57.6037 0020795 339.7520  77.6264 14.84094621847826
Epoch (UTC): 02 December 2016 05:01:24
Eccentricity: 0.0020795
inclination: 82.5705°
perigee height: 602 km
apogee height: 631 km
right ascension of ascending node: 57.6037°
argument of perigee: 339.7520°
revolutions per day: 14.84094621
mean anomaly at epoch: 77.6264°
orbit number at epoch: 84782

The dashed part of the orbit path shows where the satellite is in the earth's shadow,  

DLR